Flag for Netherlands Weather past 2 weeks in Tilburg, Netherlands

Now
77 °F

Warm.


Feels Like: 79 °F
Forecast: 70 / 93 °F
Wind: 2 mph from Northwest

Location: Gilze-Rijen

Current Time: Jul 3, 2015 at 10:49:36 AM

Latest Report: Jul 3, 2015 at 9:55 AM


Visibility: N/A

Pressure: 30.24 "Hg

Humidity: 65%

Dew point: 64 °F

Location of TilburgLocation

Historic Weather in Tilburg — Graph

°F

Tilburg temperature yesterday

Maximum temperature yesterday: 88 °F (at 11:55 AM)
Minimum temperature yesterday: 70 °F (at 11:55 PM)
Average temperature yesterday: 79 °F

Past Weeks' High & Low Weather Summary

 TemperatureHumidityPressure
High93 °F (Jul 1, 3:25 PM)100% (Jun 19, 6:25 AM)30.24 "Hg (Jun 19, 6:25 AM)
Low48 °F (Jun 28, 4:25 AM)28% (Jul 1, 2:25 PM)29.71 "Hg (Jun 22, 4:55 PM)
Average64 °F70%30.06 "Hg
* Reported Jun 18 9:25 AM — Jul 3 9:55 AM, Tilburg, Weather by CustomWeather, © 2015

Note: Actual official high and low records may vary slightly from our data, if they occured in-between our weather recording intervals... More about our weather records

Advertising

Tilburg weather history for previous 24 hours

 ConditionsComfort  
Time TempWeatherWind HumidityBarometerVisibility
9:55 AM
Fri, Jul 3
77 °FWarm.2 mph65%30.24 "HgN/A
9:25 AM75 °FMild.2 mph65%30.24 "HgN/A
8:55 AM73 °FMild.2 mph69%30.24 "HgN/A
8:25 AM72 °FMild.2 mph73%30.24 "HgN/A
7:55 AM70 °FScattered clouds.1 mph78%30.24 "HgN/A
7:25 AM68 °FFog.1 mph83%30.24 "Hg6 mi
6:55 AM64 °FFog.2 mph94%30.24 "Hg5 mi
6:25 AM63 °FFog.2 mph94%30.24 "Hg4 mi
5:55 AM63 °FFog.1 mph94%30.24 "Hg4 mi
5:25 AM64 °FFog.2 mph88%30.24 "Hg4 mi
4:55 AM64 °FMild.1 mph88%30.24 "HgN/A
4:25 AM64 °FPassing clouds.1 mph88%30.21 "HgN/A
3:55 AM66 °FPassing clouds.2 mph83%30.21 "HgN/A
3:25 AM66 °FPartly cloudy.2 mph83%30.21 "HgN/A
2:55 AM66 °FPassing clouds.3 mph78%30.21 "HgN/A
2:25 AM68 °FMild.3 mph73%30.21 "HgN/A
1:55 AM68 °FPassing clouds.3 mph73%30.18 "HgN/A
1:25 AM72 °FPassing clouds.9 mph65%30.18 "HgN/A
12:55 AM72 °FPassing clouds.8 mph65%30.18 "HgN/A
12:25 AM72 °FMild.9 mph65%30.18 "HgN/A
11:55 PM
Thu, Jul 2
70 °FMild.5 mph78%30.18 "HgN/A
11:25 PM72 °FPassing clouds.3 mph78%30.18 "HgN/A
10:55 PM73 °FBroken clouds.5 mph74%30.15 "HgN/A
10:25 PM73 °FScattered clouds.5 mph74%30.15 "HgN/A
9:55 PM73 °FBroken clouds.7 mph74%30.12 "HgN/A
9:25 PM75 °FThunderstorms. Partly sunny.3 mph74%30.12 "HgN/A
8:55 PM75 °FPassing clouds.6 mph74%30.09 "HgN/A
8:25 PM77 °FPartly sunny.8 mph65%30.09 "HgN/A
7:55 PM77 °FScattered clouds.9 mph65%30.09 "HgN/A
7:25 PM77 °FWarm.12 mph61%30.07 "HgN/A
6:55 PM79 °FWarm.14 mph58%30.07 "HgN/A
6:25 PM79 °FWarm.15 mph61%30.07 "HgN/A
5:55 PM82 °FPartly sunny.20 mph51%30.07 "HgN/A
5:25 PM84 °FPassing clouds.12 mph51%30.07 "HgN/A
4:55 PM82 °FScattered clouds.13 mph55%30.07 "HgN/A
4:25 PM81 °FPassing clouds.16 mph58%30.07 "HgN/A
3:55 PM81 °FPartly sunny.17 mph58%30.07 "HgN/A
3:25 PM84 °FScattered clouds.20 mph55%30.07 "HgN/A
2:55 PM88 °FPassing clouds.16 mph52%30.07 "HgN/A
2:25 PM88 °FPassing clouds.13 mph52%30.04 "HgN/A
1:55 PM88 °FWarm.5 mph52%30.01 "HgN/A
1:25 PM88 °FPassing clouds.7 mph55%30.04 "HgN/A
12:55 PM88 °FPassing clouds.7 mph52%30.04 "HgN/A
12:25 PM88 °FWarm.7 mph52%30.04 "HgN/A
11:55 AM88 °FPassing clouds.5 mph52%30.04 "HgN/A
11:25 AM86 °FWarm.2 mph52%30.01 "HgN/A
10:55 AM84 °FPassing clouds.5 mph55%30.01 "HgN/A
10:25 AM82 °FWarm.5 mph58%30.01 "HgN/A
Weather by CustomWeather, © 2015

See weather overviewHow to use our weather pages